This is the latest recevied weather packets stored in our database for station/object N5CNB. If no packets are shown the sender has not sent any weather packets the latest 10 day(s).
| Time | Temp. | Humidity | Pressure | Rain* | Wind** | Luminosity | Snow |
|---|---|---|---|---|---|---|---|
| 1777704329 | 10.56° C | 90% | 1017 hPa | 0 mm | - | - | - |
| 1777703411 | 11.11° C | 89% | 1017.2 hPa | 0 mm | - | - | - |
| 1777702512 | 11.11° C | 89% | 1017.3 hPa | 0 mm | - | - | - |
| 1777701616 | 11.67° C | 89% | 1017.2 hPa | 0 mm | - | - | - |
| 1777700719 | 11.67° C | 89% | 1017.3 hPa | 0 mm | - | - | - |
| 1777699804 | 12.22° C | 89% | 1017.2 hPa | 0 mm | - | - | - |
| 1777698907 | 12.22° C | 89% | 1017.2 hPa | 0 mm | - | - | - |
| 1777698011 | 12.22° C | 89% | 1017 hPa | 0 mm | - | - | - |
| 1777697119 | 12.22° C | 89% | 1016.9 hPa | 0 mm | - | - | - |
| 1777696222 | 12.22° C | 89% | 1016.7 hPa | 0 mm | - | - | - |
| 1777695305 | 12.22° C | 89% | 1016.7 hPa | 0 mm | - | - | - |
| 1777694416 | 12.22° C | 90% | 1016.6 hPa | 0 mm | - | - | - |
| 1777693516 | 12.22° C | 90% | 1016.5 hPa | 0 mm | - | - | - |
| 1777692621 | 12.22° C | 90% | 1016.2 hPa | 0 mm | - | - | - |
| 1777691722 | 12.22° C | 90% | 1016 hPa | 0 mm | - | - | - |
| 1777690807 | 12.22° C | 90% | 1016.2 hPa | 0 mm | - | - | - |
| 1777689911 | 12.78° C | 90% | 1016.1 hPa | 0 mm | - | - | - |
| 1777689017 | 12.78° C | 91% | 1015.7 hPa | 0 mm | - | - | - |
| 1777688121 | 12.78° C | 91% | 1015.4 hPa | 0 mm | - | - | - |
| 1777687224 | 12.78° C | 91% | 1014.8 hPa | 0 mm | - | - | - |
| 1777686308 | 13.33° C | 92% | 1014.2 hPa | 0 mm | - | - | - |
| 1777685414 | 13.33° C | 92% | 1013.8 hPa | 0.51 mm | - | - | - |
| 1777678225 | 14.44° C | 92% | 1013.6 hPa | 2.29 mm | - | - | - |
| 1777677315 | 14.44° C | 92% | 1013.6 hPa | 1.52 mm | - | - | - |
| 1777676415 | 14.44° C | 92% | 1012.3 hPa | 1.78 mm | - | - | - |
* Rain latest hour (hover to see other rain measurements)
** Current wind speed in m/s (hover to see current wind gust speed)